Date,TemperatureHighF,TemperatureAvgF,TemperatureLowF,DewpointHighF,DewpointAvgF,DewpointLowF,HumidityHigh,HumidityAvg,HumidityLow,PressureMaxIn,PressureMinIn,WindSpeedMaxMPH,WindSpeedAvgMPH,GustSpeedMaxMPH,PrecipitationSumIn
2013-8-1,83,74,71,76,72,70,97,93,79,29.97,29.97,3,0,0,1.05
2013-8-2,87,73,66,74,69,64,98,87,59,29.97,29.97,5,0,0,0.00
2013-8-3,88,82,72,75,72,70,94,75,59,29.97,29.97,5,0,0,0.00
2013-8-4,89,77,68,75,69,63,96,79,58,29.97,29.97,5,0,0,0.00
2013-8-5,87,75,66,75,69,63,96,82,63,29.97,29.97,4,0,0,0.12
2013-8-6,84,75,70,77,72,69,97,90,73,29.97,29.97,6,0,0,1.11
2013-8-7,77,73,71,74,72,70,98,95,91,29.97,29.97,5,0,0,0.47
2013-8-8,83,76,70,77,72,69,98,90,75,29.97,29.97,9,0,0,0.00
2013-8-9,90,76,71,81,73,70,98,91,65,29.97,29.97,7,0,0,0.23
2013-8-10,89,76,70,80,73,67,98,90,64,29.97,29.97,19,0,19,0.88
2013-8-11,91,74,67,81,71,66,98,90,64,29.97,29.97,4,0,0,0.05
2013-8-12,83,83,83,72,72,72,70,70,70,29.97,29.97,0,0,0,0.00
2013-8-13,84,77,70,77,71,68,93,83,75,29.97,29.97,5,0,0,0.01
2013-8-14,84,73,69,72,68,65,94,84,65,29.97,29.97,5,0,0,0.00
2013-8-15,73,67,61,66,61,59,93,82,67,29.97,29.97,10,0,12,0.00
2013-8-16,75,66,61,65,61,58,94,85,67,29.97,29.97,6,0,0,0.00
2013-8-17,70,65,62,64,62,60,96,89,75,29.97,29.97,5,0,0,0.12
2013-8-18,76,68,64,70,66,63,97,93,81,29.97,29.97,3,0,0,0.28
2013-8-19,78,70,67,72,68,66,98,93,78,29.97,29.97,4,0,0,1.14
2013-8-20,82,72,64,74,69,64,98,90,74,29.97,29.97,6,0,0,0.01
2013-8-21,82,73,69,74,70,67,98,91,75,29.97,29.97,4,0,0,0.24
2013-8-22,88,75,66,76,70,65,98,87,61,29.97,29.97,4,0,0,0.00
2013-8-23,91,74,65,77,69,64,98,85,51,29.97,29.97,7,0,16,0.11
2013-8-24,82,72,61,70,65,59,97,82,53,29.97,29.97,9,0,13,0.01
2013-8-25,82,68,57,68,61,56,98,80,52,29.97,29.97,6,0,0,0.00
2013-8-26,85,70,57,72,64,56,97,81,56,31.56,29.97,4,0,0,0.00
2013-8-27,90,74,61,76,68,60,98,82,52,31.56,31.56,5,0,0,0.00
2013-8-28,91,77,67,76,71,66,98,83,57,31.56,31.56,5,0,0,0.00
2013-8-29,94,79,68,78,72,67,97,81,52,31.56,31.56,5,0,0,0.00
2013-8-30,85,76,72,76,72,70,95,88,67,31.56,30.77,7,0,0,0.13
2013-8-31,89,75,70,78,72,68,98,91,65,30.77,30.77,5,0,0,0.52